This demonstration page uses our WeatherBlox Daily Observations layout. Learn more.

Left ArrowRight Arrow

38.80484, -77.04692

Hourly Observations for October 25, 2020

Temp ( °F °C ) Dew Point ( °F °C ) Humidity (%) Winds ( mph kmh ) Pressure ( in mb ) Visibility ( mi km ) Precip ( " mm )
12:52 am 00:52 Cloudy with Drizzle 57 13.9 48 8.9 72 72 N 13 20 30.10 1019 10 16 0.00 0.00
1:52 am 01:52 Cloudy 57 13.9 45 7.2 64 64 NNE 12 19 30.10 1019 10 16 0.00 0.00
2:52 am 02:52 Cloudy 56 13.3 42 5.6 60 60 NNE 13 20 30.11 1020 10 16 0.00 0.00
3:52 am 03:52 Cloudy 55 12.8 40 4.4 57 57 N 15 24 30.11 1020 10 16 0.00 0.00
4:52 am 04:52 Cloudy with Light Rain 50 10 44 6.7 80 80 NNE 10 17 30.14 1021 7 11 0.02 0.51
5:52 am 05:52 Cloudy with Rain 49 9.4 43 6.1 80 80 NNE 14 22 30.15 1021 6 10 0.09 2.29
6:52 am 06:52 Cloudy with Rain 48 8.9 44 6.7 86 86 NE 9 15 30.18 1022 6 10 0.13 3.30
7:52 am 07:52 Cloudy with Light Rain 48 8.9 43 6.1 83 83 NE 13 20 30.20 1023 9 14 0.09 2.29
8:52 am 08:52 Cloudy with Light Rain 48 8.9 43 6.1 83 83 NNE 12 19 30.22 1023 10 16 0.03 0.76
9:52 am 09:52 Cloudy with Light Rain 48 8.9 43 6.1 83 83 NNE 12 19 30.24 1024 10 16 0.02 0.51
10:27 am 10:27 Cloudy with Light Rain 47 8.3 43 6.1 86 86 NNE 9 15 30.24 1024 10 16 0.01 0.25
10:52 am 10:52 Cloudy with Light Rain 47 8.3 42 5.6 83 83 NE 10 17 30.24 1024 8 13 0.02 0.51
11:52 am 11:52 Cloudy with Light Rain 48 8.9 43 6.1 83 83 NNE 10 17 30.24 1024 10 16 0.03 0.76
12:22 pm 12:22 Cloudy 48 8.9 43 6.1 83 83 NNE 10 17 30.24 1024 10 16 0.00 0.00
12:52 pm 12:52 Cloudy 48 8.9 43 6.1 83 83 NNE 13 20 30.23 1024 10 16 0.00 0.00
1:44 pm 13:44 Cloudy with Light Rain 48 8.9 43 6.1 83 83 NE 9 15 30.23 1024 10 16 0.00 0.00
1:52 pm 13:52 Cloudy with Light Rain 49 9.4 44 6.7 83 83 NE 9 15 30.22 1023 10 16 0.00 0.00
2:52 pm 14:52 Cloudy 48 8.9 44 6.7 86 86 NNE 10 17 30.19 1023 10 16 0.02 0.51
3:52 pm 15:52 Cloudy 48 8.9 44 6.7 86 86 N 13 20 30.19 1022 10 16 0.00 0.00
4:52 pm 16:52 Cloudy 49 9.4 44 6.7 83 83 NNE 12 19 30.19 1022 10 16 0.00 0.00
4:58 pm 16:58 Cloudy 49 9.4 44 6.7 83 83 NNE 9 15 30.19 1022 10 16 0.00 0.00
5:52 pm 17:52 Cloudy 49 9.4 45 7.2 86 86 NNE 12 19 30.19 1023 10 16 0.00 0.00
6:52 pm 18:52 Cloudy 48 8.9 45 7.2 89 89 N 12 19 30.21 1023 7 11 0.00 0.00
6:55 pm 18:55 Cloudy with Drizzle 48 8.9 45 7.2 89 89 NNE 13 20 30.21 1023 6 10 0.00 0.00
7:02 pm 19:02 Cloudy with Drizzle 48 8.9 45 7.2 89 89 NNE 12 19 30.21 1023 5 8 0.00 0.00
7:52 pm 19:52 Cloudy with Drizzle 48 8.9 46 7.8 93 93 NNE 10 17 30.22 1023 3 5 0.00 0.00
8:04 pm 20:04 Cloudy with Drizzle 48 8.9 46 7.8 93 93 NNE 13 20 30.22 1023 4 6 0.00 0.00
8:21 pm 20:21 Cloudy with Drizzle 48 8.9 46 7.8 93 93 NNE 12 19 30.21 1023 5 8 0.00 0.00
8:52 pm 20:52 Cloudy with Drizzle 48 8.9 46 7.8 93 93 NNE 12 19 30.20 1023 4 6 0.00 0.00
9:19 pm 21:19 Cloudy with Drizzle 48 8.9 46 7.8 93 93 N 10 17 30.21 1023 4 6 0.00 0.00
9:50 pm 21:50 Cloudy with Drizzle 48 9 46 8 94 94 NNE 10 17 30.21 1023 4 6 0.00 0.00
9:52 pm 21:52 Cloudy with Drizzle 48 8.9 46 7.8 93 93 NNE 9 15 30.21 1023 4 6 0.00 0.00
10:21 pm 22:21 Cloudy with Drizzle 48 8.9 46 7.8 93 93 N 12 19 30.22 1023 4 6 0.00 0.00
10:52 pm 22:52 Cloudy with Drizzle 48 8.9 46 7.8 93 93 NNW 9 15 30.22 1023 5 8 0.00 0.00
11:12 pm 23:12 Cloudy with Drizzle 49 9.4 47 8.3 93 93 N 8 13 30.21 1023 9 14 0.00 0.00
11:52 pm 23:52 Cloudy with Drizzle 49 9.4 46 7.8 90 90 N 10 17 30.20 1023 8 13 0.00 0.00

Powered by AerisWeather